Simultaneous Nadir Overpasses (SNOs) Predictions

Prediction of SNOs between GOES-17 and NOAA-19 Satellite Orbit:

Table of predicted SNOs for the next 14.0 days since TLE Epoch: 3/3/2023
Index Date Time (GOES-17) GOES-17 Lat,Lon NOAA-19 Lat,Lon Distance(km) Time Diff (sec)
1 03/04/2023 03:37:09 0.00,-104.68 -0.79,-108.15 395.38 80
2 03/05/2023 03:25:12 0.00,-104.69 -0.10,-105.24 62.60 80
3 03/06/2023 03:10:33 0.01,-104.69 0.53,-102.31 270.39 80
4 03/08/2023 15:30:45 -0.01,-104.73 0.57,-107.11 272.48 80
5 03/09/2023 15:18:48 -0.01,-104.73 -0.15,-104.20 60.87 80
6 03/10/2023 15:06:49 -0.01,-104.74 -0.81,-101.28 394.12 80
7 03/12/2023 03:41:49 0.01,-104.71 -1.01,-109.03 493.69 80
8 03/13/2023 03:29:52 0.01,-104.71 -0.30,-106.12 160.81 80
9 03/14/2023 03:15:13 0.01,-104.71 0.35,-103.20 171.97 80
10 03/16/2023 15:35:22 -0.01,-104.73 0.76,-107.98 371.23 80
11 03/17/2023 15:24:19 -0.01,-104.73 0.08,-105.06 38.48 25
